Wind from 182 at 7 knots gusting 10

Air temperature 10.0° C
Dewpoint 1.4° C

Last reported at 2014-Apr-18 15:46 UTC.
Time now 2014-Apr-18 16:09 UTC

Location: N 60°28' E 022°40'.
View on Google Maps.

See reports from other nearby stations

Tides Stations Pressure Air Temp Water Temp Dewpoint Dewpoint depression Visibility Wind Speed Wind Dir Waves Ship positions

  
sailing weather and tide predictions

DW2380 Paimio FI weather

date/time (UTC)wind fromknots sea level pressurealtimeterstation pressurevisibilityair tempwater tempwave heightnotes
2014-Apr-18 15:46 182 7 gusting 10 10.0
2014-Apr-18 15:31 163 7 gusting 12 10.6
2014-Apr-18 15:16 200 6 gusting 13 10.6
2014-Apr-18 14:59 172 6 gusting 14 11.1
2014-Apr-18 14:44 157 6 gusting 13 11.1
2014-Apr-18 14:29 174 8 gusting 12 11.7
2014-Apr-18 14:14 186 7 gusting 12 12.2
2014-Apr-18 13:59 185 6 gusting 11 12.2
2014-Apr-18 13:44 188 6 gusting 11 12.2
2014-Apr-18 13:28 181 8 gusting 13 12.2
2014-Apr-18 13:13 187 10 gusting 16 12.2
2014-Apr-18 12:58 223 5 gusting 9 12.8
2014-Apr-18 12:43 200 6 gusting 13 12.2
2014-Apr-18 12:28 188 6 gusting 9 12.2
2014-Apr-18 12:12 217 7 gusting 13 12.2
2014-Apr-18 11:57 205 6 gusting 13 12.2
2014-Apr-18 11:42 147 6 gusting 11 12.2
2014-Apr-18 11:27 174 6 gusting 12 11.1
2014-Apr-18 11:11 192 7 gusting 13 11.1
2014-Apr-18 10:57 205 8 gusting 16 11.7
2014-Apr-18 10:42 178 8 gusting 14 11.1
2014-Apr-18 10:26 214 7 gusting 13 10.6
2014-Apr-18 10:11 200 10 gusting 16 10.6
2014-Apr-18 09:57 199 10 gusting 17 11.1
2014-Apr-18 09:41 181 10 gusting 14 11.1
2014-Apr-18 09:26 205 6 gusting 16 10.6
2014-Apr-18 09:11 198 10 gusting 17 10.0
2014-Apr-18 08:56 136 9 gusting 15 10.0
2014-Apr-18 08:41 170 10 gusting 16 10.0
2014-Apr-18 08:26 163 7 gusting 13 10.0
2014-Apr-18 08:11 154 7 gusting 12 10.0
2014-Apr-18 07:54 193 6 gusting 12 10.0
2014-Apr-18 07:39 159 7 gusting 12 10.0
2014-Apr-18 07:24 189 6 gusting 13 9.4
2014-Apr-18 07:09 178 7 gusting 13 9.4
2014-Apr-18 06:54 173 8 gusting 12 8.9
2014-Apr-18 06:39 169 4 gusting 8 7.8
2014-Apr-18 06:23 173 4 gusting 6 7.2
2014-Apr-18 06:08 159 3 gusting 6 7.2
2014-Apr-18 05:53 163 2 gusting 5 6.7
2014-Apr-18 05:38 151 2 gusting 4 6.7
2014-Apr-18 05:23 159 1 gusting 3 6.1
2014-Apr-18 05:08 159 6.1
2014-Apr-18 04:52 159 2 gusting 4 6.1
2014-Apr-18 04:37 160 1 gusting 3 6.1
2014-Apr-18 04:22 153 2 gusting 6 6.1
2014-Apr-18 04:07 152 4 gusting 8 6.1
2014-Apr-18 03:52 168 6 gusting 12 6.1
2014-Apr-18 03:36 165 6 gusting 10 5.6
2014-Apr-18 03:21 159 7 gusting 13 5.6
2014-Apr-18 03:06 205 7 gusting 14 5.6
2014-Apr-18 02:51 193 10 gusting 16 5.6
2014-Apr-18 02:36 178 9 gusting 19 5.6
2014-Apr-18 02:21 175 9 gusting 19 5.6
2014-Apr-18 02:06 181 10 gusting 19 5.6
2014-Apr-18 01:51 165 8 gusting 16 5.6
2014-Apr-18 01:36 204 10 gusting 17 5.6
2014-Apr-18 01:21 159 13 gusting 19 5.6
2014-Apr-18 01:06 180 10 gusting 20 5.6
2014-Apr-18 00:51 174 13 gusting 17 5.6
2014-Apr-18 00:36 139 10 gusting 19 5.6
2014-Apr-18 00:21 164 11 gusting 19 5.6
2014-Apr-18 00:06 156 9 gusting 18 5.6
2014-Apr-17 23:51 190 7 gusting 18 5.6
2014-Apr-17 23:36 164 11 gusting 18 5.6
2014-Apr-17 23:21 144 12 gusting 15 5.6
2014-Apr-17 23:06 131 5 gusting 12 5.6
2014-Apr-17 22:51 148 5 gusting 13 5.0
2014-Apr-17 22:36 156 6 gusting 15 5.0
2014-Apr-17 22:21 152 7 gusting 19 5.6
2014-Apr-17 22:06 142 9 gusting 14 5.6
2014-Apr-17 21:51 105 7 gusting 13 5.6
2014-Apr-17 21:36 163 6 gusting 16 5.6
2014-Apr-17 21:21 160 13 gusting 19 5.6
2014-Apr-17 21:06 192 12 gusting 19 5.6
2014-Apr-17 20:51 179 11 gusting 18 5.0
2014-Apr-17 20:36 166 10 gusting 22 5.0
2014-Apr-17 20:21 132 9 gusting 19 5.0
2014-Apr-17 20:07 170 11 gusting 19 5.0
2014-Apr-17 19:51 173 10 gusting 17 5.0
2014-Apr-17 19:36 163 7 gusting 18 5.0
2014-Apr-17 19:21 170 10 gusting 20 5.0
2014-Apr-17 19:06 137 8 gusting 23 5.0
2014-Apr-17 18:51 188 7 gusting 19 5.0
2014-Apr-17 18:36 155 10 gusting 19 5.0
2014-Apr-17 18:19 170 13 gusting 21 5.0
2014-Apr-17 18:04 157 7 gusting 25 4.4
2014-Apr-17 17:49 130 11 gusting 19 5.0
2014-Apr-17 17:34 170 9 gusting 19 5.0
2014-Apr-17 17:19 156 9 gusting 17 5.0
2014-Apr-17 17:04 186 14 gusting 23 5.0
2014-Apr-17 16:48 164 15 gusting 26 5.6
2014-Apr-17 16:33 175 12 gusting 23 5.6
2014-Apr-17 16:18 177 13 gusting 23 5.6
2014-Apr-17 16:03 173 10 gusting 23 6.1
2014-Apr-17 15:48 155 13 gusting 23 6.1
2014-Apr-17 15:33 146 13 gusting 21 6.7
2014-Apr-17 15:17 158 12 gusting 21 6.7
2014-Apr-17 15:03 176 13 gusting 21 7.2
2014-Apr-17 14:47 180 14 gusting 25 7.2
2014-Apr-17 14:32 161 15 gusting 26 7.2
2014-Apr-17 14:17 159 15 gusting 28 7.2
2014-Apr-17 14:02 162 17 gusting 31 7.8
2014-Apr-17 13:47 177 17 gusting 26 7.8
2014-Apr-17 13:32 177 13 gusting 23 7.8
2014-Apr-17 13:16 178 13 gusting 22 7.8
2014-Apr-17 13:01 169 15 gusting 23 8.3
2014-Apr-17 12:46 167 13 gusting 20 8.9
2014-Apr-17 12:31 178 13 gusting 23 9.4
2014-Apr-17 12:16 163 14 gusting 24 10.0
2014-Apr-17 12:01 148 10 gusting 22 10.0
2014-Apr-17 11:46 159 9 gusting 18 10.0
2014-Apr-17 11:31 151 9 gusting 19 9.4
2014-Apr-17 11:16 178 12 gusting 18 8.3
2014-Apr-17 11:01 171 10 gusting 18 8.9
2014-Apr-17 10:46 157 13 gusting 19 9.4
2014-Apr-17 10:31 161 13 gusting 18 9.4
2014-Apr-17 10:16 148 13 gusting 18 10.0
2014-Apr-17 09:59 172 9 gusting 18 9.4
2014-Apr-17 09:44 180 10 gusting 16 8.9
2014-Apr-17 09:29 150 8 gusting 19 8.9
2014-Apr-17 09:14 143 7 gusting 15 8.9
2014-Apr-17 08:59 176 12 gusting 19 9.4
2014-Apr-17 08:43 180 10 gusting 16 9.4
2014-Apr-17 08:28 168 10 gusting 14 8.3
2014-Apr-17 08:13 171 7 gusting 13 7.8
2014-Apr-17 07:58 178 7 gusting 15 7.8
2014-Apr-17 07:43 178 8 gusting 13 7.8
2014-Apr-17 07:28 160 8 gusting 13 7.8
2014-Apr-17 07:13 166 7 gusting 12 7.2
2014-Apr-17 06:57 178 7 gusting 13 7.2
2014-Apr-17 06:42 169 7 gusting 12 7.2
2014-Apr-17 06:27 153 5 gusting 12 6.7
2014-Apr-17 06:12 171 5 gusting 11 5.6
2014-Apr-17 05:57 159 5 gusting 13 5.6
2014-Apr-17 05:41 165 8 gusting 13 5.0
2014-Apr-17 05:26 161 6 gusting 13 5.0
2014-Apr-17 05:11 179 5 gusting 9 4.4
2014-Apr-17 04:56 150 4 gusting 6 3.3
2014-Apr-17 04:41 151 3 gusting 6 2.8
2014-Apr-17 04:26 139 2 gusting 6 2.8
2014-Apr-17 04:11 157 2 gusting 7 2.8
2014-Apr-17 03:56 154 3 gusting 6 2.2
2014-Apr-17 03:41 157 4 gusting 7 2.2
2014-Apr-17 03:10 153 2 gusting 8 2.2
2014-Apr-17 02:55 136 2 gusting 6 2.2
2014-Apr-17 02:40 145 2 gusting 6 2.2
2014-Apr-17 02:24 153 5 gusting 9 2.2
2014-Apr-17 02:09 146 2 gusting 7 2.2
2014-Apr-17 01:54 149 3 gusting 6 2.2
2014-Apr-17 01:39 140 3 gusting 6 2.2
2014-Apr-17 01:24 146 2 gusting 6 2.2
2014-Apr-17 01:09 153 2 gusting 7 2.2
2014-Apr-17 00:54 144 3 gusting 6 2.2
2014-Apr-17 00:39 154 4 gusting 6 2.2
2014-Apr-17 00:24 138 2 gusting 8 2.2
2014-Apr-17 00:09 156 4 gusting 7 2.2
2014-Apr-16 23:54 153 4 gusting 6 1.7
2014-Apr-16 23:39 146 3 gusting 9 1.7
2014-Apr-16 23:24 159 3 gusting 6 1.7
2014-Apr-16 23:09 144 4 gusting 9 1.1
2014-Apr-16 22:54 148 2 gusting 6 1.1
2014-Apr-16 22:39 144 2 gusting 6 1.1
2014-Apr-16 22:24 138 2 gusting 8 0.6
2014-Apr-16 22:09 148 3 gusting 7 0.6
2014-Apr-16 21:54 132 2 gusting 7 0.6
2014-Apr-16 21:39 142 3 gusting 7 0.6
2014-Apr-16 21:24 146 2 gusting 6 0.6
2014-Apr-16 21:09 141 1 gusting 5 0.6
2014-Apr-16 20:54 142 2 gusting 6 0.6
2014-Apr-16 20:39 151 2 gusting 6 0.6
2014-Apr-16 20:24 171 1.1
2014-Apr-16 20:09 146 1 gusting 4 1.1
2014-Apr-16 19:54 149 0 gusting 3 1.1
2014-Apr-16 19:39 149 1 gusting 5 1.7
2014-Apr-16 19:23 159 2 gusting 5 2.2
2014-Apr-16 19:08 156 0 gusting 6 2.2
2014-Apr-16 18:53 170 2 gusting 6 2.8
2014-Apr-16 18:38 169 3 gusting 5 2.8
2014-Apr-16 18:23 168 3 gusting 6 3.3
2014-Apr-16 18:07 178 3 gusting 7 3.9
2014-Apr-16 17:52 175 2 gusting 6 4.4
2014-Apr-16 17:37 182 3 gusting 6 4.4
2014-Apr-16 17:22 197 4 gusting 6 5.0
2014-Apr-16 17:07 210 4 gusting 8 5.6
2014-Apr-16 16:52 202 6 gusting 9 6.1
2014-Apr-16 16:37 217 6 gusting 10 6.7
2014-Apr-16 16:22 198 6 gusting 11 7.2
2014-Apr-16 16:06 223 5 gusting 9 7.8